7 * 24
多渠道服务支持
STARLINK-37241(NORAD编号68528)是SpaceX星链(Starlink)互联网卫星星座中的一颗卫星。星链项目旨在通过近地轨道卫星群,为全球提供高速低延迟互联网覆盖,尤其服务偏远地区与网络基础设施薄弱区域。该卫星遵循星链星座标准化设计,运行于近地轨道,具备自主轨道调整能力,参与星座组网以扩展全球网络服务覆盖范围,是星链大规模部署计划中批量发射组网的卫星单元之一,助力SpaceX构建全球卫星互联网系统。
美国
(US)
| 数据来源 | 国际轨道数据 |
| 星历时间: | 2026-06-10T07:46:37+0800 12小时前 查看轨道信息 |
| 半长轴: | 6853.387km |
| 偏心率: | 0.0001598 |
| 轨道倾角: | 53.160° |
| 近地点辐角 | 95.989° |
| 升交点赤经 | 60.752° |
| 平近点角 | 264.129° |
| 近地点: | 474.154km |
| 远地点: | 476.346km |
| 周期: | 94.106分钟 |
| 每日圈数: | 15.301885 |